User: anonymous   Login
Location: Unspecified
(0.0000°N, 0.0000°E)
Time: 01:59:37
(UTC+00:00)
Language:

LAPAN-TUBSAT - Orbit

View from above orbital plane
View from above orbital plane
View from above satellite
View from above satellite

Ground track
Ground track

The orbit data is extracted from the following two-line orbital elements,

1 29709U 07001A   17325.43460588  .00000068  00000-0  15003-4 0  9998
2 29709  97.7244 294.5771 0011754 304.2640  55.7463 14.82094001587272
Epoch (UTC): 21 November 2017 10:25:49
Eccentricity: 0.0011754
inclination: 97.7244°
perigee height: 614 km
apogee height: 631 km
right ascension of ascending node: 294.5771°
argument of perigee: 304.2640°
revolutions per day: 14.82094001
mean anomaly at epoch: 55.7463°
orbit number at epoch: 58727

The dashed part of the orbit path shows where the satellite is in the earth's shadow,  

DLR